Vorticity
9 -10 21 23 28 2 6 5 4 9 8 1 16 9 11 8 8 9 8 8 10 13 10 10 23 7 11 13 8 8 12 12 12 12 11 12 16 5 4 7 11 7 10 11
6 32 -16 8 20 16 18 -3 4 3 1 19 8 13 8 9 7 8 8 9 6 9 9 22 14 8 5 5 4 4 3 14 14 13 17 14 6 4 7 11 7 9 12 10
17 0 25 -16 11 21 9 13 2 5 8 5 15 7 7 8 7 9 13 10 8 8 10 15 7 5 4 4 6 10 6 11 11 12 10 5 5 8 10 7 11 11 12 10
29 0 13 3 -3 -12 14 17 13 5 10 11 8 9 8 9 9 10 8 9 9 7 12 6 4 6 9 12 15 11 10 11 11 8 6 8 10 9 7 10 9 11 11 10
6 5 23 18 0 2 -10 -3 2 21 7 6 17 14 5 6 7 4 5 6 6 8 5 7 7 6 8 14 13 14 11 11 7 8 8 10 11 7 9 8 10 11 10 7
21 22 17 16 48 6 25 31 4 4 11 3 1 9 7 12 9 6 4 5 7 7 10 7 6 7 9 13 13 11 11 8 6 7 10 11 8 7 7 8 10 9 7 6
2 15 20 26 -4 6 10 5 9 29 4 -21 15 11 5 14 11 9 10 6 5 10 11 9 8 7 10 12 11 9 7 6 6 8 9 10 7 7 6 7 8 7 6 5
-5 -7 -1 33 41 3 6 12 -3 6 16 19 1 5 3 9 3 8 5 15 9 9 13 8 10 5 7 13 11 7 6 6 6 9 11 11 8 7 6 6 7 7 5 4
12 22 6 20 17 22 27 18 17 -0 8 14 6 12 7 3 13 4 0 1 14 12 8 9 9 8 4 9 10 13 8 7 6 8 10 12 8 7 8 7 6 6 5 5
36 -7 28 -7 30 -15 13 13 13 18 13 2 12 16 16 7 7 4 14 -7 15 12 6 8 12 8 6 4 7 10 11 12 8 7 8 10 9 7 8 9 7 6 7 7
5 7 10 59 -1 -7 6 9 10 14 9 13 8 7 8 15 14 9 1 4 10 15 10 9 10 7 7 6 3 5 11 11 11 8 8 9 10 8 8 8 9 9 7 6
39 -7 -4 25 1 19 2 10 21 25 17 4 -1 12 11 8 6 8 16 9 8 12 13 11 8 7 7 6 6 6 7 8 12 12 8 8 9 9 8 7 7 8 8 6
21 49 -35 -3 4 2 11 15 21 26 3 12 27 21 5 2 4 7 6 11 13 12 10 10 13 11 7 6 8 6 5 6 9 12 8 6 6 7 7 7 6 7 7 7
12 14 42 24 23 11 7 8 16 16 6 18 10 0 13 13 9 5 4 1 1 3 8 10 9 13 16 8 5 5 5 6 6 8 7 8 7 5 4 6 7 8 6 7
-29 12 -1 39 -21 50 -4 9 -3 19 28 8 13 11 18 24 20 9 11 5 9 4 2 4 6 7 12 11 11 8 7 7 5 6 6 7 7 6 7 8 8 9 8 7
5 -12 4 13 22 17 1 23 -3 17 54 0 15 2 10 10 12 24 19 13 3 5 15 13 9 8 6 12 12 8 9 10 9 10 8 7 7 7 7 7 8 10 8 6
20 -10 3 10 24 9 -8 41 3 19 32 -10 24 25 -12 2 12 -0 5 6 14 19 11 8 10 15 13 9 14 10 8 7 10 10 7 5 4 7 10 10 10 9 8 8
11 24 -5 -10 24 17 18 -1 29 11 24 27 24 5 8 6 15 -3 4 6 8 11 14 9 11 8 5 10 9 7 10 11 9 8 10 13 15 13 9 7 8 8 8 8
-10 9 28 19 1 26 7 62 9 -12 8 10 10 44 10 19 -5 -5 12 14 11 17 24 13 14 9 13 -1 7 11 8 12 12 12 10 10 11 14 16 14 11 9 9 9
-6 4 -8 1 11 1 15 12 29 24 -2 8 6 6 5 7 4 1 15 4 4 12 11 13 13 13 13 9 22 3 -1 5 7 8 10 10 7 9 11 13 14 13 12 9
39 -3 5 -2 -0 -20 -10 -1 13 11 24 15 10 -5 -2 6 2 22 -5 1 0 10 12 11 11 8 9 19 12 16 8 6 3 6 9 9 9 8 5 11 10 10 10 10
46 53 6 9 9 11 14 5 8 16 9 26 23 22 12 17 11 10 11 3 12 11 12 9 9 10 16 10 17 10 14 12 5 0 1 5 3 5 2 11 8 9 9 10
10 12 51 38 3 15 12 16 13 -7 -9 8 10 10 17 16 13 15 7 -5 -2 11 6 5 5 3 6 15 20 14 7 20 18 4 -4 1 18 4 2 2 2 9 13 6
18 11 8 18 22 37 16 3 -4 1 -6 -1 -3 13 13 14 17 12 18 21 6 22 1 -4 8 12 12 10 16 21 12 13 -2 20 4 34 14 -16 -10 -2 -1 8 7 2
10 11 15 21 18 23 24 32 10 11 12 7 -0 -2 -0 15 15 12 23 28 3 17 -2 18 6 5 2 3 3 4 12 21 13 17 7 -11 -3 5 16 13 10 7 2 16
12 13 8 11 13 13 21 30 24 19 21 14 9 3 3 3 15 7 11 6 7 24 -2 33 18 10 16 4 5 1 5 17 14 21 16 10 7 3 -1 -9 -1 14 5 25
9 5 8 11 17 16 14 13 16 21 25 22 15 20 11 8 -0 -1 11 5 17 16 18 1 -15 27 14 4 8 9 -0 8 9 11 16 18 22 25 26 29 6 15 22 15
Height
5604 5613 5624 5627 5632 5639 5644 5652 5656 5665 5669 5678 5681 5685 5686 5688 5690 5694 5698 5701 5705 5706 5708 5710 5713 5715 5718 5720 5722 5723 5725 5726 5727 5729 5731 5733 5735 5737 5739 5741 5743 5744 5746 5747
5591 5601 5610 5618 5625 5629 5638 5646 5651 5659 5665 5671 5677 5679 5679 5680 5684 5688 5692 5695 5698 5701 5704 5706 5709 5711 5714 5717 5719 5720 5721 5722 5724 5725 5727 5729 5732 5734 5736 5738 5739 5741 5742 5743
5579 5590 5601 5604 5613 5623 5630 5637 5644 5648 5657 5666 5668 5672 5672 5675 5678 5682 5686 5690 5693 5697 5700 5702 5705 5707 5710 5712 5714 5716 5718 5720 5721 5723 5725 5727 5729 5731 5733 5734 5736 5737 5738 5740
5575 5582 5582 5595 5605 5614 5623 5628 5635 5642 5649 5657 5663 5666 5666 5671 5673 5675 5679 5683 5688 5692 5695 5698 5700 5703 5705 5707 5710 5712 5714 5716 5718 5720 5722 5724 5725 5727 5729 5731 5732 5734 5735 5736
5566 5571 5580 5589 5594 5603 5610 5618 5626 5634 5642 5651 5653 5656 5659 5663 5665 5669 5673 5678 5683 5686 5689 5692 5696 5698 5700 5702 5704 5707 5709 5712 5714 5716 5718 5720 5722 5723 5725 5727 5729 5730 5731 5732
5560 5564 5570 5585 5591 5598 5604 5605 5616 5626 5634 5642 5642 5648 5654 5654 5661 5663 5667 5673 5677 5680 5684 5687 5691 5693 5695 5697 5699 5702 5704 5707 5709 5712 5714 5715 5717 5719 5721 5723 5725 5726 5727 5727
5551 5557 5566 5567 5577 5584 5590 5603 5607 5615 5623 5631 5634 5642 5648 5649 5654 5657 5661 5664 5668 5674 5678 5681 5684 5688 5690 5692 5695 5696 5699 5702 5705 5707 5709 5711 5713 5715 5717 5719 5721 5722 5723 5723
5545 5551 5557 5560 5566 5572 5579 5587 5596 5605 5612 5621 5625 5633 5638 5641 5645 5648 5653 5657 5663 5668 5672 5675 5678 5682 5685 5688 5689 5690 5694 5696 5699 5702 5704 5707 5709 5710 5712 5714 5715 5716 5717 5718
5538 5545 5549 5553 5558 5564 5572 5580 5588 5598 5603 5610 5616 5622 5629 5633 5636 5641 5646 5651 5656 5660 5665 5668 5672 5677 5680 5682 5682 5685 5688 5691 5693 5696 5699 5702 5704 5706 5708 5709 5710 5711 5711 5712
5530 5538 5542 5546 5552 5558 5566 5573 5579 5587 5596 5602 5609 5614 5620 5624 5626 5633 5638 5644 5648 5652 5657 5662 5666 5670 5672 5674 5676 5679 5683 5685 5687 5690 5693 5696 5698 5700 5702 5703 5704 5705 5705 5705
5521 5528 5532 5534 5545 5553 5558 5565 5572 5579 5587 5593 5600 5605 5611 5615 5620 5626 5630 5636 5641 5645 5649 5654 5657 5661 5664 5667 5670 5674 5677 5679 5681 5683 5686 5688 5691 5693 5695 5696 5697 5698 5698 5698
5510 5518 5522 5528 5536 5544 5551 5558 5563 5569 5576 5583 5589 5594 5601 5607 5611 5617 5621 5626 5632 5637 5641 5645 5650 5653 5656 5659 5663 5666 5670 5673 5675 5677 5679 5681 5684 5686 5688 5689 5690 5691 5691 5691
5504 5510 5516 5524 5530 5537 5544 5550 5556 5561 5567 5571 5577 5583 5589 5596 5602 5607 5613 5618 5622 5627 5632 5636 5641 5645 5649 5651 5655 5658 5662 5665 5668 5670 5671 5674 5676 5678 5679 5680 5681 5683 5683 5683
5499 5504 5510 5515 5522 5529 5536 5543 5548 5553 5559 5563 5569 5575 5581 5587 5593 5598 5603 5608 5613 5618 5623 5628 5632 5636 5640 5642 5646 5649 5653 5656 5660 5662 5664 5666 5668 5670 5670 5673 5673 5675 5675 5676
5492 5497 5501 5507 5515 5520 5527 5534 5540 5545 5551 5556 5561 5566 5572 5578 5584 5588 5594 5598 5603 5608 5613 5617 5622 5627 5630 5634 5638 5640 5644 5648 5651 5653 5655 5658 5660 5662 5664 5665 5666 5667 5667 5668
5485 5490 5496 5502 5508 5514 5520 5526 5532 5538 5541 5547 5553 5559 5565 5570 5574 5579 5584 5589 5594 5599 5603 5607 5611 5616 5620 5624 5628 5630 5634 5638 5641 5644 5646 5649 5652 5654 5655 5657 5657 5659 5659 5658
5478 5485 5489 5495 5502 5507 5513 5516 5522 5529 5532 5537 5544 5551 5555 5562 5566 5571 5576 5580 5584 5589 5594 5598 5601 5605 5610 5614 5617 5621 5624 5627 5631 5634 5637 5640 5641 5643 5644 5647 5648 5649 5650 5650
5473 5477 5482 5487 5493 5499 5505 5510 5513 5520 5524 5528 5534 5541 5547 5552 5558 5563 5567 5571 5576 5579 5584 5588 5592 5596 5599 5603 5607 5610 5614 5618 5621 5625 5627 5629 5631 5632 5634 5636 5638 5639 5640 5641
5464 5471 5477 5482 5486 5490 5496 5499 5503 5509 5514 5519 5524 5529 5535 5542 5548 5553 5557 5561 5565 5569 5573 5577 5580 5584 5588 5592 5595 5599 5603 5607 5611 5614 5616 5619 5620 5622 5624 5625 5627 5628 5630 5630
5454 5462 5468 5473 5478 5482 5487 5490 5494 5498 5505 5509 5514 5520 5524 5530 5537 5542 5547 5552 5556 5559 5562 5566 5569 5572 5576 5580 5583 5587 5592 5596 5600 5603 5606 5608 5611 5613 5614 5616 5618 5618 5619 5619
5448 5454 5460 5464 5468 5473 5477 5482 5487 5489 5492 5498 5504 5508 5513 5520 5525 5530 5535 5540 5545 5549 5552 5555 5558 5560 5564 5568 5571 5575 5579 5584 5589 5592 5595 5598 5600 5603 5605 5607 5608 5608 5609 5609
5442 5446 5451 5456 5460 5464 5469 5473 5479 5481 5484 5488 5492 5497 5502 5508 5513 5518 5522 5528 5533 5538 5541 5545 5547 5549 5552 5556 5559 5563 5566 5570 5575 5579 5583 5588 5590 5593 5595 5596 5598 5599 5600 5600
5440 5442 5443 5446 5451 5454 5458 5463 5468 5470 5474 5478 5482 5485 5490 5495 5500 5504 5509 5514 5519 5524 5528 5532 5535 5538 5541 5544 5547 5550 5554 5558 5563 5568 5571 5574 5578 5581 5581 5585 5586 5588 5590 5591
5437 5438 5439 5441 5443 5445 5448 5452 5457 5461 5464 5468 5473 5476 5479 5483 5488 5491 5496 5501 5506 5510 5515 5518 5522 5526 5529 5533 5536 5539 5542 5545 5549 5554 5558 5563 5565 5567 5570 5573 5574 5577 5578 5579
5434 5434 5435 5436 5436 5437 5439 5443 5447 5450 5453 5457 5462 5466 5470 5473 5477 5480 5484 5488 5492 5497 5502 5505 5510 5513 5517 5520 5524 5527 5530 5533 5536 5539 5542 5547 5551 5554 5557 5559 5563 5566 5567 5569
5429 5429 5430 5430 5430 5430 5431 5433 5436 5438 5441 5445 5449 5453 5457 5461 5465 5469 5472 5476 5480 5485 5489 5491 5496 5500 5504 5507 5511 5515 5518 5521 5524 5528 5531 5534 5537 5540 5544 5548 5551 5554 5556 5557
5425 5424 5424 5423 5422 5422 5423 5424 5425 5428 5429 5432 5436 5438 5442 5447 5451 5455 5459 5462 5466 5470 5474 5476 5481 5484 5489 5493 5497 5501 5504 5508 5512 5515 5519 5522 5525 5528 5531 5534 5537 5540 5541 5543